Overview Statistics Trail Chart Weather Telemetry Raw packets
 

This is the latest recevied weather packets stored in our database for station/object R1ZCU-14. If no packets are shown the sender has not sent any weather packets the latest 10 day(s).

<< 38 39 40 41 42 43 44 >>
Time Temp. Humidity Pressure Rain* Wind** Luminosity Snow
1787768911 8.33° C 92% 1019 hPa - - - -
1787768311 8.89° C 88% 1019.2 hPa - - - -
1787767710 8.89° C 82% 1019.1 hPa - - - -
1787767110 8.89° C 76% 1018.9 hPa - - - -
1787766509 8.89° C 75% 1018.9 hPa - - - -
1787765909 8.89° C 72% 1018.8 hPa - - - -
1787765308 9.44° C 69% 1018.8 hPa - - - -
1787764708 9.44° C 67% 1018.8 hPa - - - -
1787764107 9.44° C 65% 1018.7 hPa - - - -
1787763507 9.44° C 65% 1018.8 hPa - - - -
1787762906 10° C 64% 1018.6 hPa - - - -
1787762306 10° C 65% 1018.7 hPa - - - -
1787761705 10° C 63% 1018.8 hPa - - - -
1787761105 10° C 65% 1018.8 hPa - - - -
1787760504 10° C 63% 1018.9 hPa - - - -
1787759904 10° C 65% 1018.9 hPa - - - -
1787759303 10° C 66% 1018.9 hPa - - - -
1787758703 10.56° C 65% 1019 hPa - - - -
1787758102 10.56° C 61% 1019.1 hPa - - - -
1787757502 10.56° C 59% 1019 hPa - - - -
1787756901 10.56° C 60% 1018.9 hPa - - - -
1787756301 10.56° C 61% 1018.9 hPa - - - -
1787755700 10.56° C 60% 1019 hPa - - - -
1787755100 10.56° C 59% 1018.9 hPa - - - -
1787754499 10.56° C 60% 1019 hPa - - - -

* Rain since midnight (hover to see other rain measurements)
** Current wind speed in m/s (hover to see current wind gust speed)